This is the latest recevied weather packets stored in our database for station/object KQ4UWH. If no packets are shown the sender has not sent any weather packets the latest 10 day(s).
| Time | Temp. | Humidity | Pressure | Rain* | Wind** | Luminosity | Snow |
|---|---|---|---|---|---|---|---|
| 1777306366 | 21.11° C | 63% | 1239.7 hPa | 0 mm | - | 694 W/m² | - |
| 1777306059 | 21.11° C | 62% | 1239.7 hPa | 0 mm | - | 689 W/m² | - |
| 1777305757 | 21.67° C | 63% | 1239.7 hPa | 0 mm | - | 611 W/m² | - |
| 1777305452 | 21.11° C | 63% | 1239.7 hPa | 0 mm | - | 675 W/m² | - |
| 1777305152 | 20.56° C | 66% | 1239.7 hPa | 0 mm | - | 680 W/m² | - |
| 1777304847 | 20.56° C | 65% | 1239.7 hPa | 0 mm | - | 662 W/m² | - |
| 1777304545 | 20.56° C | 63% | 1239.7 hPa | 0 mm | - | 662 W/m² | - |
| 1777304242 | 21.11° C | 64% | 1239.7 hPa | 0 mm | - | 630 W/m² | - |
| 1777303939 | 20.56° C | 65% | 1239.7 hPa | 0 mm | - | 632 W/m² | - |
| 1777303636 | 20° C | 65% | 1239.7 hPa | 0 mm | - | 369 W/m² | - |
| 1777303334 | 20.56° C | 66% | 1239.7 hPa | 0 mm | - | 621 W/m² | - |
| 1777303030 | 20° C | 68% | 1239.7 hPa | 0 mm | - | 611 W/m² | - |
| 1777302728 | 18.89° C | 70% | 1239.7 hPa | 0 mm | - | 616 W/m² | - |
| 1777302426 | 18.89° C | 70% | 1239.7 hPa | 0 mm | - | 293 W/m² | - |
| 1777302123 | 18.89° C | 71% | 1239.7 hPa | 0 mm | - | 189 W/m² | - |
| 1777301821 | 18.89° C | 71% | 1239.7 hPa | 0 mm | - | 169 W/m² | - |
| 1777301519 | 18.89° C | 71% | 1239.7 hPa | 0 mm | - | 190 W/m² | - |
| 1777301215 | 18.89° C | 70% | 1239.7 hPa | 0 mm | - | 267 W/m² | - |
| 1777300911 | 18.89° C | 72% | 1239.7 hPa | 0 mm | - | 178 W/m² | - |
| 1777300610 | 18.33° C | 72% | 1239.7 hPa | 0 mm | - | 213 W/m² | - |
| 1777300307 | 18.33° C | 74% | 1239.7 hPa | 0 mm | - | 206 W/m² | - |
| 1777300004 | 18.33° C | 74% | 1239.7 hPa | 0 mm | - | 278 W/m² | - |
| 1777299700 | 17.78° C | 75% | 1239.7 hPa | 0 mm | - | 144 W/m² | - |
| 1777299398 | 17.78° C | 74% | 1239.7 hPa | 0 mm | - | 123 W/m² | - |
| 1777299096 | 17.78° C | 75% | 1239.7 hPa | 0 mm | - | 143 W/m² | - |
* Rain latest hour (hover to see other rain measurements)
** Current wind speed in m/s (hover to see current wind gust speed)